When you browse on this site, cookies collect data to enhance your experience and personalize the content and advertising you see.
Visit our Privacy Policy to learn more. By continuing to use the site, you agree to this use of cookies and data.
  • In Hungary
  • List of Countries
  • For 7 days
  • Water Temperature
  • Satellite Maps
  • Weather Map
  • News
  • Weather Widgets
  • user-avatar
    Login

    Hourly Weather Wlora

    Today, 14 December, Friday

    Time Temperature Precipitation Wind Pressure Humidity
    00:00 +6°C° 0.4 mm 7 mps 760 mmHg 84%
    01:00 +8°C° 0.4 mm 7 mps 760 mmHg 85%
    02:00 +8°C° 0.4 mm 7 mps 759 mmHg 87%
    03:00 +8°C° 0.4 mm 7 mps 759 mmHg 88%
    04:00 +9°C° 0.4 mm 7 mps 759 mmHg 90%
    05:00 +9°C° 0.3 mm 8 mps 759 mmHg 90%
    06:00 +9°C° 0.3 mm 8 mps 759 mmHg 90%
    07:00 +10°C° 0.3 mm 8 mps 759 mmHg 90%
    08:00 +11°C° 0.2 mm 8 mps 759 mmHg 88%
    09:00 +12°C° 0.2 mm 9 mps 759 mmHg 86%
    10:00 +13°C° 0.2 mm 9 mps 759 mmHg 84%
    11:00 +13°C° 0.3 mm 9 mps 759 mmHg 84%
    12:00 +13°C° 0.3 mm 9 mps 759 mmHg 84%
    13:00 +15°C° 0.3 mm 9 mps 758 mmHg 84%
    14:00 +13°C° 0.5 mm 9 mps 758 mmHg 86%
    15:00 +13°C° 0.5 mm 9 mps 758 mmHg 87%
    16:00 +12°C° 0.5 mm 9 mps 758 mmHg 88%
    17:00 +12°C° 0.3 mm 9 mps 758 mmHg 88%
    18:00 +12°C° 0.3 mm 9 mps 758 mmHg 88%
    19:00 +11°C° 0.3 mm 9 mps 759 mmHg 88%
    20:00 +11°C° 0.2 mm 9 mps 759 mmHg 87%
    21:00 +11°C° 0.2 mm 9 mps 759 mmHg 85%
    22:00 +10°C° 0.2 mm 9 mps 759 mmHg 83%
    23:00 +10°C° 0.2 mm 9 mps 759 mmHg 82%

    Tomorrow, 15 December, Saturday

    Time Temperature Precipitation Wind Pressure Humidity
    00:00 +10°C° 0.2 mm 9 mps 758 mmHg 80%
    01:00 +10°C° 0.2 mm 9 mps 758 mmHg 79%
    02:00 +9°C° 0.2 mm 10 mps 758 mmHg 80%
    03:00 +9°C° 0.2 mm 10 mps 758 mmHg 81%
    04:00 +11°C° 0.2 mm 10 mps 757 mmHg 82%
    05:00 +11°C° 0.7 mm 10 mps 757 mmHg 83%
    06:00 +11°C° 0.7 mm 10 mps 758 mmHg 84%
    07:00 +11°C° 0.7 mm 9 mps 758 mmHg 85%
    08:00 +12°C° 0.5 mm 9 mps 758 mmHg 81%
    09:00 +12°C° 0.5 mm 9 mps 758 mmHg 77%
    10:00 +13°C° 0.5 mm 9 mps 758 mmHg 73%
    11:00 +15°C° 0.6 mm 8 mps 758 mmHg 69%
    12:00 +16°C° 0.6 mm 8 mps 758 mmHg 64%
    13:00 +17°C° 0.6 mm 8 mps 758 mmHg 60%
    14:00 +16°C° 1 mm 7 mps 758 mmHg 64%
    15:00 +15°C° 1 mm 7 mps 758 mmHg 68%
    16:00 +14°C° 1 mm 6 mps 757 mmHg 72%
    17:00 +13°C° 1.5 mm 5 mps 758 mmHg 73%
    18:00 +13°C° 1.5 mm 5 mps 758 mmHg 74%
    19:00 +13°C° 1.5 mm 4 mps 758 mmHg 75%
    20:00 +12°C° 2.1 mm 5 mps 758 mmHg 75%
    21:00 +11°C° 2.1 mm 6 mps 759 mmHg 75%
    22:00 +11°C° 2.1 mm 7 mps 759 mmHg 75%
    23:00 +11°C° 1.6 mm 8 mps 759 mmHg 78%

    Day after tomorrow, 16 December, Sunday

    Time Temperature Precipitation Wind Pressure Humidity
    00:00 +11°C° 1.6 mm 8 mps 759 mmHg 80%
    01:00 +11°C° 1.6 mm 9 mps 760 mmHg 83%
    02:00 +10°C° 1.2 mm 9 mps 760 mmHg 86%
    03:00 +10°C° 1.2 mm 9 mps 760 mmHg 89%
    04:00 +8°C° 1.2 mm 9 mps 760 mmHg 92%
    05:00 +9°C° 0.5 mm 8 mps 760 mmHg 92%
    06:00 +9°C° 0.5 mm 8 mps 760 mmHg 92%
    07:00 +9°C° 0.5 mm 8 mps 761 mmHg 92%
    08:00 +9°C° 0.1 mm 8 mps 761 mmHg 89%
    09:00 +9°C° 0.1 mm 7 mps 761 mmHg 85%
    10:00 +9°C° 0.1 mm 7 mps 762 mmHg 81%
    11:00 +9°C° 0 mm 7 mps 761 mmHg 79%
    12:00 +10°C° 0 mm 7 mps 761 mmHg 78%
    13:00 +10°C° 0 mm 7 mps 761 mmHg 76%
    14:00 +9°C° 0 mm 7 mps 762 mmHg 77%
    15:00 +9°C° 0 mm 7 mps 762 mmHg 78%
    16:00 +8°C° 0 mm 7 mps 762 mmHg 78%
    17:00 +8°C° 0 mm 6 mps 763 mmHg 80%
    18:00 +7°C° 0 mm 6 mps 763 mmHg 82%
    19:00 +7°C° 0 mm 5 mps 764 mmHg 83%
    20:00 +7°C° 0 mm 5 mps 764 mmHg 83%
    21:00 +7°C° 0 mm 5 mps 764 mmHg 83%
    22:00 +7°C° 0 mm 4 mps 764 mmHg 82%
    23:00 +7°C° 0 mm 4 mps 764 mmHg 82%

    17 December, Monday

    Time Temperature Precipitation Wind Pressure Humidity
    00:00 +8°C° 0 mm 3 mps 764 mmHg 82%
    01:00 +8°C° 0 mm 3 mps 764 mmHg 82%
    02:00 +8°C° 0 mm 3 mps 764 mmHg 82%
    03:00 +9°C° 0 mm 2 mps 764 mmHg 81%
    04:00 +9°C° 0 mm 2 mps 764 mmHg 81%
    05:00 +9°C° 0 mm 2 mps 764 mmHg 80%
    06:00 +9°C° 0 mm 2 mps 764 mmHg 80%
    07:00 +10°C° 0 mm 1 mps 765 mmHg 79%
    08:00 +11°C° 0 mm 1 mps 765 mmHg 76%
    09:00 +13°C° 0 mm 1 mps 765 mmHg 73%
    10:00 +14°C° 0 mm 1 mps 765 mmHg 69%
    11:00 +14°C° 0 mm 2 mps 765 mmHg 69%
    12:00 +14°C° 0 mm 2 mps 764 mmHg 69%
    13:00 +14°C° 0 mm 3 mps 764 mmHg 69%
    14:00 +13°C° 0 mm 4 mps 764 mmHg 73%
    15:00 +13°C° 0 mm 4 mps 763 mmHg 77%
    16:00 +12°C° 0 mm 5 mps 763 mmHg 81%
    17:00 +12°C° 0.1 mm 5 mps 763 mmHg 82%
    18:00 +11°C° 0.1 mm 6 mps 763 mmHg 83%
    19:00 +10°C° 0.1 mm 6 mps 764 mmHg 85%
    20:00 +10°C° 0.5 mm 6 mps 764 mmHg 84%
    21:00 +10°C° 0.5 mm 7 mps 764 mmHg 84%
    22:00 +10°C° 0.5 mm 7 mps 764 mmHg 84%
    23:00 +10°C° 0.5 mm 7 mps 764 mmHg 85%

    18 December, Tuesday

    Time Temperature Precipitation Wind Pressure Humidity
    00:00 +10°C° 0.5 mm 6 mps 763 mmHg 85%
    01:00 +10°C° 0.5 mm 6 mps 763 mmHg 86%
    02:00 +9°C° 0.5 mm 6 mps 763 mmHg 86%
    03:00 +9°C° 0.5 mm 5 mps 763 mmHg 87%
    04:00 +9°C° 0.5 mm 5 mps 763 mmHg 87%
    05:00 +9°C° 0.7 mm 5 mps 763 mmHg 88%
    06:00 +10°C° 0.7 mm 4 mps 763 mmHg 88%
    07:00 +10°C° 0.7 mm 4 mps 763 mmHg 89%
    08:00 +10°C° 0.7 mm 5 mps 763 mmHg 87%
    09:00 +12°C° 0.7 mm 5 mps 763 mmHg 86%
    10:00 +12°C° 0.7 mm 5 mps 764 mmHg 85%
    11:00 +11°C° 0.5 mm 6 mps 763 mmHg 83%
    12:00 +12°C° 0.5 mm 7 mps 763 mmHg 81%
    13:00 +12°C° 0.5 mm 8 mps 763 mmHg 79%
    14:00 +12°C° 0.1 mm 8 mps 763 mmHg 80%
    15:00 +11°C° 0.1 mm 8 mps 763 mmHg 81%
    16:00 +11°C° 0.1 mm 8 mps 763 mmHg 82%
    17:00 +10°C° 0 mm 8 mps 764 mmHg 83%
    18:00 +10°C° 0 mm 7 mps 764 mmHg 84%
    19:00 +10°C° 0 mm 7 mps 764 mmHg 84%
    20:00 +9°C° 0 mm 7 mps 765 mmHg 83%
    21:00 +9°C° 0 mm 7 mps 765 mmHg 82%
    22:00 +9°C° 0 mm 7 mps 766 mmHg 81%
    23:00 +7°C° 0 mm 8 mps 766 mmHg 80%

    19 December, Wednesday

    Time Temperature Precipitation Wind Pressure Humidity
    00:00 +7°C° 0 mm 8 mps 766 mmHg 79%
    01:00 +6°C° 0 mm 8 mps 766 mmHg 79%
    02:00 +6°C° 0 mm 8 mps 766 mmHg 78%
    03:00 +6°C° 0 mm 7 mps 767 mmHg 77%
    04:00 +5°C° 0 mm 7 mps 767 mmHg 77%
    05:00 +5°C° 0 mm 7 mps 767 mmHg 76%
    06:00 +5°C° 0 mm 6 mps 767 mmHg 75%
    07:00 +5°C° 0 mm 6 mps 768 mmHg 74%
    08:00 +8°C° 0 mm 6 mps 768 mmHg 69%
    09:00 +9°C° 0 mm 6 mps 768 mmHg 64%
    10:00 +12°C° 0 mm 5 mps 768 mmHg 59%
    11:00 +13°C° 0 mm 5 mps 768 mmHg 56%
    12:00 +14°C° 0 mm 5 mps 768 mmHg 53%
    13:00 +15°C° 0 mm 5 mps 768 mmHg 51%
    14:00 +14°C° 0 mm 5 mps 768 mmHg 56%
    15:00 +13°C° 0 mm 5 mps 768 mmHg 61%
    16:00 +12°C° 0 mm 5 mps 768 mmHg 66%
    17:00 +11°C° 0 mm 4 mps 768 mmHg 68%
    18:00 +11°C° 0 mm 3 mps 768 mmHg 70%
    19:00 +10°C° 0 mm 3 mps 768 mmHg 72%
    20:00 +10°C° 0 mm 2 mps 768 mmHg 72%
    21:00 +10°C° 0 mm 2 mps 768 mmHg 72%
    22:00 +10°C° 0 mm 1 mps 768 mmHg 72%
    23:00 +9°C° 0 mm 2 mps 768 mmHg 72%
    Show more